FENGYUN 1C DEB

Satellite information

Favourite Embed

Satellite Type and Status

DEBRISIN ORBIT

Key statistics

Satellite FENGYUN 1C DEB at a glance.

Uptime

9555

Days in orbit

Revolutions

≈ 14.4

Per day

Orbit

SSO

Sun Synchronous Orbit

Inclination

99.8

Latest

Satellite identification and parameters

Extended collection of information and parameters for FENGYUN 1C DEB.

Object identification

Identified? True

Debris? True

Object name: FENGYUN 1C DEB

International designator: 1999-025CVD

Object number (NORAD): 32207

Object ID (CCSDS): 32207

Country: PEOPLES REPUBLIC OF CHINA (PRC)

Current information (Y/N): Y

RCS size: SMALL

Orbital parameters

Period: 100.067 minutes

Inclination: 99.8356 deg

SMA: 7139.81 km

Apoapsis: 822.29 km

Periapsis: 701.061 km

RAAN: 116.2467 deg

Eccentricy: 0.0084896

Argument of periapsis: 251.8305 deg

Mean anomaly: 287.0239 deg

Mean motion: 14.39039587 rev/day

Mean motion (dot): 0.00000497 rev/day2

B* drag term: 0.0001726 1/REarth

Two-line elements (TLE)

Creation date: June 30, 2025, 2:36 p.m.

Reference frame: TEME

Reference center: EARTH

Epoch: June 30, 2025, 1:53 p.m. UTC

TLE line 0: 0 FENGYUN 1C DEB

TLE line 1: 1 32207U 99025CVD 25181.57913523 .00000497 00000-0 17260-3 0 9990

TLE line 2: 2 32207 99.8356 116.2467 0084896 251.8305 287.0239 14.39039587939698

Live tracking on map

Real-time ground track for satellite FENGYUN 1C DEB.

In-orbit conjunctions

A list of the most updated potential collisions computed for object FENGYUN 1C DEB.

Target Orbit TCA Probability of collision Miss distance Type
CZ-6A DEB LEO 2024-10-05 10:47:04 0.0001133087 809.0 (m) DEBRIS
CZ-6A DEB LEO 2024-10-04 21:19:18 0.0001034255 251.0 (m) DEBRIS
NOAA 16 DEB SSO 2024-09-12 16:32:49 0.0002493866 48.0 (m) DEBRIS

Associated space launch

Chinese polar orbiting meteorological satellite

FENGYUN 1C DEB was lifted into orbit during the mission ‘Long March 4B | Feng Yun 1C’, on board a Long March 4B space rocket.

The launch took place on May 10, 1999, 1:33 a.m. from Launch Complex 7.

For more information about the launch, click the button.

Launch to space Long March 4B | Feng Yun 1C
Long March 4B | Feng Yun 1C

Agency: N/A

Status: Launch Successful

Launch date: May 10, 1999, 1:33 a.m. UTC

Rocket: Long March 4B

Launch pad: Launch Complex 7

Location: Taiyuan Satellite Launch Center, People's Republic of China

...

Latest news about this satellite

There are no fresh news available about this satellite. Check back as we update our databases every day.


Newsletter sign-up

Weekly statistics, charts and insights to help you stay on top of the space industry.